FLOCK 2K-48

Last updated on Wed Feb 14 2018 16:20:52 GMT+0000 (Coordinated Universal Time)

1 42855U 17042AG 18044.68042590 .00007241 00000-0 21095-3 0 9993 2 42855 96.9926 307.4845 0009814 190.2370 169.8676 15.35620958 32677

Satellite not in orbit

FLOCK 2K-48